Date String (YYYY-MM-DD hh:mm:ss) UTC,Instrument flags,Ambient pressure (hPa),Sample flow (lpm),Bypass flow (lpm),Sample temperature (°C),Ambient temperature (°C),ASC tube jacket temperature (°C),LED temperature (°C),Box temperature (°C),Sample RH (%),Span deviation,Mass concentration (μg/m³),Mass concentration (μg/m³),Mass concentration (μg/m³)
DateTimeUTC,F1_M11,P_M11,Q1_M11,Q2_M11,T1_M11,T2_M11,T3_M11,T4_M11,T5_M11,U1_M11,ZSPAN_M11,X2_M11,X0_M11,X1_M11
2023-05-14 15:00:00,,0841.7,5.00,0.00,28.8,27.2,00.0,37.1,30.4,28.1,0000.0,0001.71,0002.94,0001.17
2023-05-14 15:01:00,,0841.6,5.01,0.00,28.8,27.2,00.0,37.1,30.3,28.2,0000.0,0001.70,0002.91,0001.16
2023-05-14 15:02:00,,0841.6,5.00,0.00,28.8,27.2,00.0,37.1,30.4,28.3,0000.0,0001.74,0002.99,0001.16
2023-05-14 15:03:00,,0841.6,5.00,0.00,28.8,27.2,00.0,37.1,30.3,28.5,0000.0,0001.80,0003.16,0001.19
2023-05-14 15:04:00,,0841.6,5.00,0.00,28.8,27.2,00.0,37.1,30.3,28.2,0000.0,0001.78,0003.12,0001.20
2023-05-14 15:05:00,,0841.6,5.00,0.00,28.8,27.2,00.0,37.1,30.3,28.1,0000.0,0001.78,0003.17,0001.20
2023-05-14 15:06:00,,0841.6,5.00,0.00,28.8,27.2,00.0,37.1,30.3,28.0,0000.0,0001.82,0003.88,0001.18
2023-05-14 15:07:00,,0841.6,4.99,0.00,28.8,27.2,00.0,37.1,30.3,28.4,0000.0,0001.75,0004.88,0001.17
2023-05-14 15:08:00,,0841.5,5.00,0.00,28.8,27.2,00.0,37.1,30.3,28.3,0000.0,0001.67,0004.69,0001.15
2023-05-14 15:09:00,,0841.6,5.00,0.00,28.8,27.2,00.0,37.1,30.3,28.3,0000.0,0001.67,0004.63,0001.16
2023-05-14 15:10:00,,0841.6,5.00,0.00,28.8,27.2,00.0,37.1,30.3,28.8,0000.0,0001.69,0004.87,0001.17
2023-05-14 15:11:00,,0841.6,5.00,0.00,28.8,27.2,00.0,37.1,30.4,28.5,0000.0,0001.68,0005.46,0001.18
2023-05-14 15:12:00,,0841.6,5.02,0.00,28.8,27.2,00.0,37.1,30.4,28.2,0000.0,0001.68,0005.42,0001.18
2023-05-14 15:13:00,,0841.6,5.01,0.00,28.8,27.2,00.0,37.1,30.4,28.2,0000.0,0001.63,0005.30,0001.18
2023-05-14 15:14:00,,0841.6,5.00,0.00,28.8,27.2,00.0,37.1,30.4,28.0,0000.0,0001.61,0005.23,0001.17
2023-05-14 15:15:00,,0841.6,4.99,0.00,28.8,27.2,00.0,37.1,30.4,28.1,0000.0,0001.62,0005.22,0001.18
2023-05-14 15:16:00,,0841.6,5.01,0.00,28.8,27.2,00.0,37.1,30.4,28.0,0000.0,0001.63,0005.20,0001.19
2023-05-14 15:17:00,,0841.6,5.00,0.00,28.8,27.2,00.0,37.1,30.4,28.5,0000.0,0001.60,0004.76,0001.22
2023-05-14 15:18:00,,0841.6,5.01,0.00,28.8,27.2,00.0,37.1,30.4,28.5,0000.0,0001.60,0003.40,0001.24
2023-05-14 15:19:00,,0841.6,5.00,0.00,28.8,27.2,00.0,37.1,30.4,28.1,0000.0,0001.63,0003.36,0001.26
2023-05-14 15:20:00,,0841.6,5.00,0.00,28.8,27.2,00.0,37.1,30.4,28.0,0000.0,0001.65,0003.41,0001.24
2023-05-14 15:21:00,,0841.6,5.00,0.00,28.8,27.2,00.0,37.1,30.4,28.0,0000.0,0001.60,0003.31,0001.22
2023-05-14 15:22:00,,0841.6,5.00,0.00,28.8,27.2,00.0,37.1,30.4,28.1,0000.0,0001.54,0002.31,0001.19
2023-05-14 15:23:00,,0841.6,5.00,0.00,28.8,27.2,00.0,37.1,30.4,28.5,0000.0,0001.52,0002.27,0001.19
2023-05-14 15:24:00,,0841.5,5.00,0.00,28.8,27.2,00.0,37.1,30.4,28.3,0000.0,0001.49,0002.21,0001.18
2023-05-14 15:25:00,,0841.6,5.00,0.00,28.8,27.2,00.0,37.1,30.4,28.2,0000.0,0001.43,0002.06,0001.16
2023-05-14 15:26:00,,0841.5,5.00,0.00,28.8,27.2,00.0,37.1,30.4,28.6,0000.0,0001.42,0002.09,0001.14
2023-05-14 15:27:00,,0841.5,5.01,0.00,28.8,27.2,00.0,37.1,30.4,28.9,0000.0,0001.40,0002.07,0001.12
2023-05-14 15:28:00,,0841.6,5.01,0.00,28.8,27.2,00.0,37.1,30.4,28.7,0000.0,0001.36,0002.03,0001.10
2023-05-14 15:29:00,,0841.6,5.01,0.00,28.8,27.3,00.0,37.1,30.4,28.6,0000.0,0001.36,0002.05,0001.08
2023-05-14 15:30:00,,0841.6,4.99,0.00,28.8,27.3,00.0,37.1,30.4,29.1,0000.0,0001.31,0001.95,0001.05
2023-05-14 15:31:00,,0841.6,5.00,0.00,28.8,27.2,00.0,37.1,30.4,29.3,0000.0,0001.28,0001.89,0001.05
2023-05-14 15:32:00,,0841.6,4.99,0.00,28.8,27.2,00.0,37.1,30.4,28.7,0000.0,0001.27,0001.83,0001.05
2023-05-14 15:33:00,,0841.6,5.00,0.00,28.8,27.3,00.0,37.2,30.4,28.4,0000.0,0001.27,0001.84,0001.04
2023-05-14 15:34:00,,0841.6,5.00,0.00,28.8,27.3,00.0,37.2,30.4,28.2,0000.0,0001.26,0001.85,0001.02
2023-05-14 15:35:00,,0841.6,5.00,0.00,28.8,27.3,00.0,37.2,30.4,28.3,0000.0,0001.21,0001.78,0000.99
2023-05-14 15:36:00,,0841.6,5.00,0.00,28.8,27.3,00.0,37.2,30.4,28.6,0000.0,0001.17,0001.71,0000.96
2023-05-14 15:37:00,,0841.6,5.00,0.00,28.8,27.3,00.0,37.2,30.4,28.2,0000.0,0001.13,0001.56,0000.94
2023-05-14 15:38:00,,0841.6,5.01,0.00,28.8,27.3,00.0,37.2,30.4,28.1,0000.0,0001.10,0001.51,0000.93
2023-05-14 15:39:00,,0841.6,5.00,0.00,28.8,27.3,00.0,37.2,30.4,28.3,0000.0,0001.08,0001.49,0000.89
2023-05-14 15:40:00,,0841.6,5.00,0.00,28.8,27.3,00.0,37.2,30.4,29.2,0000.0,0001.03,0001.41,0000.86
2023-05-14 15:41:00,,0841.6,5.01,0.00,28.8,27.3,00.0,37.2,30.4,28.7,0000.0,0001.02,0001.38,0000.85
2023-05-14 15:42:00,,0841.6,5.01,0.00,28.8,27.3,00.0,37.2,30.4,28.5,0000.0,0001.02,0001.42,0000.85
2023-05-14 15:43:00,,0841.6,4.98,0.00,28.8,27.3,00.0,37.2,30.4,28.5,0000.0,0001.03,0001.44,0000.85
2023-05-14 15:44:00,,0841.6,5.01,0.00,28.8,27.3,00.0,37.2,30.4,29.0,0000.0,0001.03,0001.48,0000.82
2023-05-14 15:45:00,,0841.6,5.00,0.00,28.9,27.3,00.0,37.2,30.4,28.2,0000.0,0001.00,0001.45,0000.80
2023-05-14 15:46:00,,0841.6,5.01,0.00,28.9,27.3,00.0,37.2,30.5,28.1,0000.0,0001.00,0001.47,0000.78
2023-05-14 15:47:00,,0841.6,4.99,0.00,28.9,27.3,00.0,37.2,30.4,28.4,0000.0,0001.00,0001.52,0000.77
2023-05-14 15:48:00,,0841.6,4.99,0.00,28.9,27.3,00.0,37.2,30.4,28.0,0000.0,0000.99,0001.55,0000.75
2023-05-14 15:49:00,,0841.6,4.99,0.00,28.9,27.3,00.0,37.2,30.4,27.3,0000.0,0000.96,0001.59,0000.70
2023-05-14 15:50:00,,0841.6,5.01,0.00,28.9,27.4,00.0,37.2,30.5,27.8,0000.0,0000.94,0001.57,0000.69
2023-05-14 15:51:00,,0841.6,5.00,0.00,28.9,27.4,00.0,37.2,30.5,28.3,0000.0,0000.95,0001.60,0000.68
2023-05-14 15:52:00,,0841.6,5.00,0.00,28.9,27.4,00.0,37.2,30.5,28.5,0000.0,0000.97,0001.69,0000.68
2023-05-14 15:53:00,,0841.6,5.01,0.00,28.9,27.4,00.0,37.2,30.5,28.2,0000.0,0000.99,0001.75,0000.67
2023-05-14 15:54:00,,0841.6,5.01,0.00,28.9,27.4,00.0,37.2,30.5,27.9,0000.0,0000.97,0001.69,0000.67
2023-05-14 15:55:00,,0841.6,5.00,0.00,28.9,27.4,00.0,37.2,30.5,28.2,0000.0,0000.96,0001.65,0000.66
2023-05-14 15:56:00,,0841.6,5.00,0.00,28.9,27.4,00.0,37.2,30.5,27.8,0000.0,0000.98,0001.69,0000.67
2023-05-14 15:57:00,,0841.6,5.00,0.00,28.9,27.4,00.0,37.2,30.5,28.6,0000.0,0000.99,0001.72,0000.67
2023-05-14 15:58:00,,0841.6,5.00,0.00,28.9,27.4,00.0,37.2,30.5,29.0,0000.0,0000.97,0001.68,0000.67
2023-05-14 15:59:00,,0841.6,5.00,0.00,28.9,27.4,00.0,37.2,30.5,28.0,0000.0,0000.98,0001.65,0000.68
